Year,Month,Day,Hour,Minute,Value (Times are PST for temperature in C)
2014,03,24,10,46,8.80
2014,03,24,10,47,8.80
2014,03,24,10,48,8.80
2014,03,24,10,49,8.90
2014,03,24,10,50,8.90
2014,03,24,10,51,8.90
2014,03,24,10,52,9.00
2014,03,24,10,53,9.00
2014,03,24,10,54,9.00
2014,03,24,10,55,9.00
2014,03,24,10,56,9.10
2014,03,24,10,57,9.10
2014,03,24,10,58,9.10
2014,03,24,10,59,9.10
2014,03,24,11,00,9.10
2014,03,24,11,01,9.10
2014,03,24,11,02,9.10
2014,03,24,11,03,9.10
2014,03,24,11,04,9.10
2014,03,24,11,05,9.20
2014,03,24,11,06,9.20
2014,03,24,11,07,9.20
2014,03,24,11,08,9.20
2014,03,24,11,09,9.20
2014,03,24,11,10,9.20
2014,03,24,11,11,9.20
2014,03,24,11,12,9.20
2014,03,24,11,13,9.20
2014,03,24,11,14,9.20
2014,03,24,11,15,9.20
2014,03,24,11,16,9.20
2014,03,24,11,17,9.20
2014,03,24,11,18,9.20
2014,03,24,11,19,9.30
2014,03,24,11,20,9.30
2014,03,24,11,21,9.30
2014,03,24,11,22,9.40
2014,03,24,11,23,9.40
2014,03,24,11,24,9.40
2014,03,24,11,25,9.50
2014,03,24,11,26,9.50
2014,03,24,11,27,9.50
2014,03,24,11,28,9.60
2014,03,24,11,29,9.60
2014,03,24,11,30,9.60
2014,03,24,11,31,9.60
2014,03,24,11,32,9.60
2014,03,24,11,33,9.60
2014,03,24,11,34,9.50
2014,03,24,11,35,9.50
2014,03,24,11,36,9.50
2014,03,24,11,37,9.50
2014,03,24,11,38,9.50
2014,03,24,11,39,9.50
2014,03,24,11,40,9.50
2014,03,24,11,41,9.50
2014,03,24,11,42,9.50
2014,03,24,11,43,9.50
2014,03,24,11,44,9.50
2014,03,24,11,45,9.50
2014,03,24,11,46,9.50
2014,03,24,11,47,9.50
2014,03,24,11,48,9.50
2014,03,24,11,49,9.60
2014,03,24,11,50,9.60
2014,03,24,11,51,9.60
2014,03,24,11,52,9.60
2014,03,24,11,53,9.60
2014,03,24,11,54,9.60
2014,03,24,11,55,9.60
2014,03,24,11,56,9.70
2014,03,24,11,57,9.80
2014,03,24,11,58,9.80
2014,03,24,11,59,9.80
2014,03,24,12,00,9.80
2014,03,24,12,01,9.80
2014,03,24,12,02,9.90
2014,03,24,12,03,9.90
2014,03,24,12,04,9.90
2014,03,24,12,05,9.90
2014,03,24,12,06,9.80
2014,03,24,12,07,9.90
2014,03,24,12,08,9.90
2014,03,24,12,09,9.90
2014,03,24,12,10,9.90
2014,03,24,12,11,9.90
2014,03,24,12,12,9.90
2014,03,24,12,13,10.00
2014,03,24,12,14,10.00
2014,03,24,12,15,10.00
2014,03,24,12,16,10.10
2014,03,24,12,17,10.10
2014,03,24,12,18,10.10
2014,03,24,12,19,10.10
2014,03,24,12,20,10.10
2014,03,24,12,21,10.10
2014,03,24,12,22,10.10
2014,03,24,12,23,10.10
2014,03,24,12,24,10.10
2014,03,24,12,25,10.10
2014,03,24,12,26,10.10
2014,03,24,12,27,10.10
2014,03,24,12,28,10.10
2014,03,24,12,29,10.00
2014,03,24,12,30,10.00
2014,03,24,12,31,10.00
2014,03,24,12,32,10.00
2014,03,24,12,33,10.10
2014,03,24,12,34,10.10
2014,03,24,12,35,10.10
2014,03,24,12,36,10.20
2014,03,24,12,37,10.20
2014,03,24,12,38,10.20
2014,03,24,12,39,10.30
2014,03,24,12,40,10.30
2014,03,24,12,41,10.40
2014,03,24,12,42,10.40
2014,03,24,12,43,10.40
2014,03,24,12,44,10.30
2014,03,24,12,45,10.40
2014,03,24,12,46,10.40
2014,03,24,12,47,10.40
2014,03,24,12,48,10.40
2014,03,24,12,49,10.50
2014,03,24,12,50,10.50
2014,03,24,12,51,10.50
2014,03,24,12,52,10.50
2014,03,24,12,53,10.50
2014,03,24,12,54,10.50
2014,03,24,12,55,10.50
2014,03,24,12,56,10.40
2014,03,24,12,57,10.40
2014,03,24,12,58,10.40
2014,03,24,12,59,10.40
2014,03,24,13,00,10.40
2014,03,24,13,01,10.30
2014,03,24,13,02,10.20
2014,03,24,13,03,10.20
2014,03,24,13,04,10.20
2014,03,24,13,05,10.20
2014,03,24,13,06,10.20
2014,03,24,13,07,10.20
2014,03,24,13,08,10.30
2014,03,24,13,09,10.30
2014,03,24,13,10,10.40
2014,03,24,13,11,10.40
2014,03,24,13,12,10.50
2014,03,24,13,13,10.50
2014,03,24,13,14,10.60
2014,03,24,13,15,10.60
2014,03,24,13,16,10.60
2014,03,24,13,17,10.70
2014,03,24,13,18,10.70
2014,03,24,13,19,10.80
2014,03,24,13,20,10.80
2014,03,24,13,21,10.80
2014,03,24,13,22,10.80
2014,03,24,13,23,10.90
2014,03,24,13,24,10.90
2014,03,24,13,25,10.90
2014,03,24,13,26,10.90
2014,03,24,13,27,10.90
2014,03,24,13,28,11.00
2014,03,24,13,29,11.00
2014,03,24,13,30,11.00
2014,03,24,13,31,11.00
2014,03,24,13,32,11.10
2014,03,24,13,33,11.10
2014,03,24,13,34,11.10
2014,03,24,13,35,11.10
2014,03,24,13,36,11.10
2014,03,24,13,37,11.10
2014,03,24,13,38,11.10
2014,03,24,13,39,11.10
2014,03,24,13,40,11.10
2014,03,24,13,41,11.20
2014,03,24,13,42,11.20
2014,03,24,13,43,11.20
2014,03,24,13,44,11.20
2014,03,24,13,45,11.20
2014,03,24,13,46,11.20
2014,03,24,13,47,11.30
2014,03,24,13,48,11.30
2014,03,24,13,49,11.30
2014,03,24,13,50,11.30
2014,03,24,13,51,11.30
2014,03,24,13,52,11.30
2014,03,24,13,53,11.30
2014,03,24,13,54,11.30
2014,03,24,13,55,11.30
2014,03,24,13,56,11.30
2014,03,24,13,57,11.30
2014,03,24,13,58,11.30
2014,03,24,13,59,11.30
2014,03,24,14,00,11.30
2014,03,24,14,01,11.30
2014,03,24,14,02,11.30
2014,03,24,14,03,11.30
2014,03,24,14,04,11.30
2014,03,24,14,05,11.40
2014,03,24,14,06,11.40
2014,03,24,14,07,11.40
2014,03,24,14,08,11.40
2014,03,24,14,09,11.40
2014,03,24,14,10,11.40
2014,03,24,14,11,11.40
2014,03,24,14,12,11.30
2014,03,24,14,13,11.30
2014,03,24,14,14,11.40
2014,03,24,14,15,11.40
2014,03,24,14,16,11.40
2014,03,24,14,17,11.40
2014,03,24,14,18,11.40
2014,03,24,14,19,11.30
2014,03,24,14,20,11.30
2014,03,24,14,21,11.30
2014,03,24,14,22,11.30
2014,03,24,14,23,11.30
2014,03,24,14,24,11.30
2014,03,24,14,25,11.40
2014,03,24,14,26,11.40
2014,03,24,14,27,11.40
2014,03,24,14,28,11.40
2014,03,24,14,29,11.40
2014,03,24,14,30,11.40
2014,03,24,14,31,11.40
2014,03,24,14,32,11.50
2014,03,24,14,33,11.50
2014,03,24,14,34,11.60
2014,03,24,14,35,11.60
2014,03,24,14,36,11.60
2014,03,24,14,37,11.60
2014,03,24,14,38,11.60
2014,03,24,14,39,11.60
2014,03,24,14,40,11.60
2014,03,24,14,41,11.70
2014,03,24,14,42,11.70
2014,03,24,14,43,11.70
2014,03,24,14,44,11.70
2014,03,24,14,45,11.70
2014,03,24,14,46,11.80
2014,03,24,14,47,11.80
2014,03,24,14,48,11.80
2014,03,24,14,49,11.90
2014,03,24,14,50,11.90
2014,03,24,14,51,11.90
2014,03,24,14,52,11.90
2014,03,24,14,53,12.00
2014,03,24,14,54,12.00
2014,03,24,14,55,12.00
2014,03,24,14,56,12.10
2014,03,24,14,57,12.10
2014,03,24,14,58,12.10
2014,03,24,14,59,12.20
2014,03,24,15,00,12.20
2014,03,24,15,01,12.20
2014,03,24,15,02,12.20
2014,03,24,15,03,12.20
2014,03,24,15,04,12.20
2014,03,24,15,05,12.20
2014,03,24,15,06,12.20
2014,03,24,15,07,12.20
2014,03,24,15,08,12.20
2014,03,24,15,09,12.20
2014,03,24,15,10,12.20
2014,03,24,15,11,12.20
2014,03,24,15,12,12.20
2014,03,24,15,13,12.20
2014,03,24,15,14,12.20
2014,03,24,15,15,12.20
2014,03,24,15,16,12.20
2014,03,24,15,17,12.20
2014,03,24,15,18,12.20
2014,03,24,15,19,12.20
2014,03,24,15,20,12.30
2014,03,24,15,21,12.30
2014,03,24,15,22,12.30
2014,03,24,15,23,12.30
2014,03,24,15,24,12.30
2014,03,24,15,25,12.40
2014,03,24,15,26,12.40
2014,03,24,15,27,12.40
2014,03,24,15,28,12.40
2014,03,24,15,29,12.40
2014,03,24,15,30,12.40
2014,03,24,15,31,12.50
2014,03,24,15,32,12.50
2014,03,24,15,33,12.50
2014,03,24,15,34,12.60
2014,03,24,15,35,12.60
2014,03,24,15,36,12.60
2014,03,24,15,37,12.60
2014,03,24,15,38,12.60
2014,03,24,15,39,12.60
2014,03,24,15,40,12.60
2014,03,24,15,41,12.60
2014,03,24,15,42,12.60
2014,03,24,15,43,12.60
2014,03,24,15,44,12.60
2014,03,24,15,45,12.60
2014,03,24,15,46,12.60
2014,03,24,15,47,12.60
2014,03,24,15,48,12.60
2014,03,24,15,49,12.60
2014,03,24,15,50,12.60
2014,03,24,15,51,12.60
2014,03,24,15,52,12.60
2014,03,24,15,53,12.60
2014,03,24,15,54,12.60
2014,03,24,15,55,12.60
2014,03,24,15,56,12.60
2014,03,24,15,57,12.60
2014,03,24,15,58,12.70
2014,03,24,15,59,12.70
2014,03,24,16,00,12.70
2014,03,24,16,01,12.80
2014,03,24,16,02,12.80
2014,03,24,16,03,12.80
2014,03,24,16,04,12.80
2014,03,24,16,05,12.80
2014,03,24,16,06,12.80
2014,03,24,16,07,12.90
2014,03,24,16,08,12.90
2014,03,24,16,09,12.90
2014,03,24,16,10,12.90
2014,03,24,16,11,13.00
2014,03,24,16,12,13.00
2014,03,24,16,13,13.00
2014,03,24,16,14,13.10
2014,03,24,16,15,13.10
2014,03,24,16,16,13.10
2014,03,24,16,17,13.10
2014,03,24,16,18,13.10
2014,03,24,16,19,13.20
2014,03,24,16,20,13.20
2014,03,24,16,21,13.20
2014,03,24,16,22,13.20
2014,03,24,16,23,13.20
2014,03,24,16,24,13.20
2014,03,24,16,25,13.20
2014,03,24,16,26,13.20
2014,03,24,16,27,13.20
2014,03,24,16,28,13.20
2014,03,24,16,29,13.30
2014,03,24,16,30,13.30
2014,03,24,16,31,13.20
2014,03,24,16,32,13.20
2014,03,24,16,33,13.20
2014,03,24,16,34,13.20
2014,03,24,16,35,13.20
2014,03,24,16,36,13.30
2014,03,24,16,37,13.30
2014,03,24,16,38,13.30
2014,03,24,16,39,13.30
2014,03,24,16,40,13.30
2014,03,24,16,41,13.30
2014,03,24,16,42,13.30
2014,03,24,16,43,13.30
2014,03,24,16,44,13.30
2014,03,24,16,45,13.30
2014,03,24,16,46,13.30
2014,03,24,16,47,13.30
2014,03,24,16,48,13.30
2014,03,24,16,49,13.30
2014,03,24,16,50,13.30
2014,03,24,16,51,13.30
2014,03,24,16,52,13.30
2014,03,24,16,53,13.30
2014,03,24,16,54,13.30
2014,03,24,16,55,13.30
2014,03,24,16,56,13.30
2014,03,24,16,57,13.30
2014,03,24,16,58,13.30
2014,03,24,16,59,13.30
2014,03,24,17,00,13.30
2014,03,24,17,01,13.30
2014,03,24,17,02,13.30
2014,03,24,17,03,13.30
2014,03,24,17,04,13.30
2014,03,24,17,05,13.30
2014,03,24,17,06,13.30
2014,03,24,17,07,13.30
2014,03,24,17,08,13.30
2014,03,24,17,09,13.30
2014,03,24,17,10,13.30
2014,03,24,17,11,13.30
2014,03,24,17,12,13.30
2014,03,24,17,13,13.30
2014,03,24,17,14,13.30
2014,03,24,17,15,13.30
2014,03,24,17,16,13.30
2014,03,24,17,17,13.30
2014,03,24,17,18,13.30
2014,03,24,17,19,13.30
2014,03,24,17,20,13.30
2014,03,24,17,21,13.30
2014,03,24,17,22,13.30
2014,03,24,17,23,13.30
2014,03,24,17,24,13.30
2014,03,24,17,25,13.30
2014,03,24,17,26,13.30
2014,03,24,17,27,13.30
2014,03,24,17,28,13.30
2014,03,24,17,29,13.30
2014,03,24,17,30,13.40
2014,03,24,17,31,13.40
2014,03,24,17,32,13.40
2014,03,24,17,33,13.40
2014,03,24,17,34,13.40
2014,03,24,17,35,13.40
2014,03,24,17,36,13.50
2014,03,24,17,37,13.50
2014,03,24,17,38,13.50
2014,03,24,17,39,13.60
2014,03,24,17,40,13.60
2014,03,24,17,41,13.60
2014,03,24,17,42,13.70
2014,03,24,17,43,13.80
2014,03,24,17,44,13.80
2014,03,24,17,45,13.90
2014,03,24,17,46,14.00
2014,03,24,17,47,14.00
2014,03,24,17,48,14.00
2014,03,24,17,49,14.10
2014,03,24,17,50,14.10
2014,03,24,17,51,14.10
2014,03,24,17,52,14.10
2014,03,24,17,53,14.10
2014,03,24,17,54,14.00
2014,03,24,17,55,14.00
2014,03,24,17,56,13.90
2014,03,24,17,57,13.90
2014,03,24,17,58,13.90
2014,03,24,17,59,13.90
2014,03,24,18,00,13.90
2014,03,24,18,01,13.90
2014,03,24,18,02,13.80
2014,03,24,18,03,13.80
2014,03,24,18,04,13.80
2014,03,24,18,05,13.80
2014,03,24,18,06,13.90
2014,03,24,18,07,13.90
2014,03,24,18,08,13.90
2014,03,24,18,09,13.90
2014,03,24,18,10,13.90
2014,03,24,18,11,13.90
2014,03,24,18,12,13.90
2014,03,24,18,13,13.90
2014,03,24,18,14,13.80
2014,03,24,18,15,13.80
2014,03,24,18,16,13.80
2014,03,24,18,17,13.70
2014,03,24,18,18,13.70
2014,03,24,18,19,13.60
2014,03,24,18,20,13.50
2014,03,24,18,21,13.40
2014,03,24,18,22,13.40
2014,03,24,18,23,13.30
2014,03,24,18,24,13.20
2014,03,24,18,25,13.20
2014,03,24,18,26,13.10
2014,03,24,18,27,13.00
2014,03,24,18,28,13.00
2014,03,24,18,29,12.90
2014,03,24,18,30,12.80
2014,03,24,18,31,12.80
2014,03,24,18,32,12.80
2014,03,24,18,33,12.70
2014,03,24,18,34,12.70
2014,03,24,18,35,12.60
2014,03,24,18,36,12.60
2014,03,24,18,37,12.60
2014,03,24,18,38,12.50
2014,03,24,18,39,12.50
2014,03,24,18,40,12.40
2014,03,24,18,41,12.40
2014,03,24,18,42,12.40
2014,03,24,18,43,12.30
2014,03,24,18,44,12.30
2014,03,24,18,45,12.20
2014,03,24,18,46,12.20
2014,03,24,18,47,12.20
2014,03,24,18,48,12.20
2014,03,24,18,49,12.10
2014,03,24,18,50,12.10
2014,03,24,18,51,12.10
2014,03,24,18,52,12.10
2014,03,24,18,53,12.10
2014,03,24,18,54,12.00
2014,03,24,18,55,12.00
2014,03,24,18,56,11.90
2014,03,24,18,57,11.90
2014,03,24,18,58,11.80
2014,03,24,18,59,11.80
2014,03,24,19,00,11.80
2014,03,24,19,01,11.70
2014,03,24,19,02,11.70
2014,03,24,19,03,11.70
2014,03,24,19,04,11.60
2014,03,24,19,05,11.60
2014,03,24,19,06,11.60
2014,03,24,19,07,11.60
2014,03,24,19,08,11.50
2014,03,24,19,09,11.50
2014,03,24,19,10,11.50
2014,03,24,19,11,11.50
2014,03,24,19,12,11.50
2014,03,24,19,13,11.50
2014,03,24,19,14,11.50
2014,03,24,19,15,11.50
2014,03,24,19,16,11.50
2014,03,24,19,17,11.50
2014,03,24,19,18,11.50
